Sheridan, WY

3:25 PM MDT on August 27, 2016 (GMT -0600)
Sheridan County

Weather History for KSHR - November, 2013

Change the Weather History Date:

Wednesday, November 6, 2013

  Actual Average Record
Temperature  
Mean Temperature 34 °F 37 °F  
Max Temperature 47 °F 51 °F 77 °F (1999)
Min Temperature 20 °F 24 °F 1 °F (1971)
Degree Days  
Heating Degree Days 31 28  
Month to date heating degree days 181 159  
Since 1 July heating degree days 1043 1067  
Cooling Degree Days 0 0  
Month to date cooling degree days 0 0  
Year to date cooling degree days 592 419  
Moisture  
Dew Point 23 °F    
Average Humidity 65    
Maximum Humidity 92    
Minimum Humidity 38    
Precipitation  
Precipitation 0.00 in 0.02 in 0.80 in (1986)
Month to date precipitation 0.06 0.15  
Year to date precipitation 16.78 13.04  
Sea Level Pressure  
Sea Level Pressure 30.24 in    
Wind  
Wind Speed 8 mph (WNW)    
Max Wind Speed 31 mph    
Max Gust Speed 39 mph    
Visibility 10 miles    
Events      
T = Trace of Precipitation, MM = Missing Value Source: NWS Daily Summary

Daily Weather History Graph

Daily Weather History Graph

Search for Another Location

Airport or City:

Trip Planner

Search our weather history database for the weather conditions in past years. The results will help you decide how hot, cold, wet, or windy it might be!

Date:

Astronomy

Nov. 06, 2013 Rise Set
Actual Time 6:53 AM MST 4:49 PM MST
Civil Twilight 6:22 AM MST 5:20 PM MST
Nautical Twilight 5:47 AM MST 5:55 PM MST
Astronomical Twilight 5:13 AM MST 6:29 PM MST
Moon 10:14 AM MST (11/6) 7:53 PM MST (11/6)
Length of Visible Light 10h 58m
Length of Day
9h 56m
Waxing Crescent, 14% of the Moon is Illuminated
Nov 6
Waxing Crescent
Nov 9
First Quarter
Nov 17
Full
Nov 25
Last Quarter
Dec 2
New

Hourly Weather History & Observations

Time (MST) Temp. Windchill Dew Point Humidity Pressure Visibility Wind Dir Wind Speed Gust Speed Precip Events Conditions
12:53 AM 24.1 °F - 18.0 °F 77% 30.12 in 10.0 mi Calm Calm - N/A   Overcast
1:53 AM 27.0 °F - 18.0 °F 69% 30.12 in 10.0 mi Calm Calm - N/A   Overcast
2:53 AM 26.1 °F - 21.0 °F 81% 30.12 in 10.0 mi Calm Calm - N/A   Overcast
3:53 AM 27.0 °F 21.6 °F 21.0 °F 78% 30.12 in 10.0 mi North 4.6 mph - N/A   Overcast
4:53 AM 28.0 °F 24.2 °F 21.9 °F 78% 30.15 in 10.0 mi NW 3.5 mph - N/A   Overcast
5:53 AM 26.1 °F 18.4 °F 21.0 °F 81% 30.17 in 10.0 mi South 6.9 mph - N/A   Overcast
6:53 AM 28.0 °F 22.8 °F 21.9 °F 78% 30.19 in 10.0 mi WSW 4.6 mph - N/A   Overcast
7:53 AM 37.0 °F 33.3 °F 21.9 °F 54% 30.17 in 10.0 mi NNW 4.6 mph - N/A   Overcast
8:53 AM 41.0 °F 38.0 °F 27.0 °F 57% 30.21 in 10.0 mi North 4.6 mph - N/A   Mostly Cloudy
9:53 AM 41.0 °F - 26.1 °F 55% 30.21 in - Calm Calm - N/A   Unknown
10:53 AM 46.0 °F 41.9 °F 23.0 °F 40% 30.19 in 10.0 mi WNW 8.1 mph - N/A   Mostly Cloudy
11:53 AM 43.0 °F 34.0 °F 28.0 °F 56% 30.23 in 10.0 mi NNW 21.9 mph - N/A   Unknown
12:53 PM 42.1 °F 33.6 °F 25.0 °F 51% 30.23 in 10.0 mi NW 18.4 mph - N/A   Mostly Cloudy
1:53 PM 45.0 °F 37.4 °F 24.1 °F 44% 30.22 in 10.0 mi NW 18.4 mph - N/A   Clear
2:53 PM 44.1 °F 34.4 °F 21.9 °F 42% 30.24 in 10.0 mi NW 27.6 mph 36.8 mph N/A   Mostly Cloudy
3:53 PM 42.1 °F 31.5 °F 23.0 °F 47% 30.26 in 10.0 mi NW 28.8 mph 39.1 mph N/A   Overcast
4:53 PM 37.0 °F 28.9 °F 25.0 °F 62% 30.31 in 10.0 mi NNW 12.7 mph - N/A   Scattered Clouds
5:53 PM 30.0 °F 26.5 °F 25.0 °F 82% 30.35 in 10.0 mi North 3.5 mph - N/A   Scattered Clouds
6:53 PM 28.9 °F 25.2 °F 26.1 °F 89% 30.37 in 10.0 mi WSW 3.5 mph - N/A   Mostly Cloudy
7:53 PM 32.0 °F 26.4 °F 28.0 °F 85% 30.35 in 10.0 mi West 5.8 mph - N/A   Overcast
8:53 PM 30.9 °F 26.2 °F 27.0 °F 85% 30.36 in 10.0 mi SSW 4.6 mph - N/A   Overcast
9:53 PM 30.0 °F - 25.0 °F 82% 30.37 in 10.0 mi Calm Calm - N/A   Mostly Cloudy
10:53 PM 25.0 °F 20.7 °F 21.9 °F 88% 30.38 in 10.0 mi SSW 3.5 mph - N/A   Clear
11:53 PM 27.0 °F 21.6 °F 23.0 °F 85% 30.38 in 10.0 mi SSW 4.6 mph - N/A   Scattered Clouds